TimeEST,TemperatureF,Dew PointF,Humidity,Sea Level PressureIn,VisibilityMPH,Wind Direction,Wind SpeedMPH,Gust SpeedMPH,PrecipitationIn,Events,Conditions,WindDirDegrees,DateUTC
12:15 AM,46.4,21.2,37,30.13,10.0,Calm,Calm,-,N/A,,Clear,0,2013-12-20 05:15:00
12:35 AM,44.6,21.2,39,30.12,10.0,Calm,Calm,-,N/A,,Clear,0,2013-12-20 05:35:00
12:55 AM,42.8,23.0,46,30.12,10.0,North,4.6,-,N/A,,Clear,10,2013-12-20 05:55:00
1:15 AM,44.6,21.2,39,30.12,10.0,NE,3.5,-,N/A,,Clear,40,2013-12-20 06:15:00
1:35 AM,42.8,23.0,46,30.12,10.0,Calm,Calm,-,N/A,,Clear,0,2013-12-20 06:35:00
1:55 AM,42.8,21.2,42,30.13,10.0,Calm,Calm,-,N/A,,Clear,0,2013-12-20 06:55:00
2:15 AM,42.8,21.2,42,30.13,10.0,NW,3.5,-,N/A,,Clear,320,2013-12-20 07:15:00
2:35 AM,41.0,24.8,53,30.13,10.0,Calm,Calm,-,N/A,,Clear,0,2013-12-20 07:35:00
2:55 AM,41.0,24.8,53,30.14,10.0,Calm,Calm,-,N/A,,Clear,0,2013-12-20 07:55:00
3:15 AM,41.0,26.6,57,30.14,10.0,Calm,Calm,-,N/A,,Clear,0,2013-12-20 08:15:00
3:35 AM,39.2,26.6,61,30.14,10.0,Calm,Calm,-,N/A,,Clear,0,2013-12-20 08:35:00
3:55 AM,42.8,24.8,49,30.14,10.0,WSW,5.8,-,N/A,,Clear,250,2013-12-20 08:55:00
4:15 AM,41.0,26.6,57,30.13,10.0,Calm,Calm,-,N/A,,Clear,0,2013-12-20 09:15:00
4:35 AM,42.8,24.8,49,30.13,10.0,South,3.5,-,N/A,,Clear,170,2013-12-20 09:35:00
4:55 AM,44.6,24.8,46,30.13,10.0,Calm,Calm,-,N/A,,Clear,0,2013-12-20 09:55:00
5:15 AM,44.6,23.0,43,30.13,10.0,SW,3.5,-,N/A,,Clear,220,2013-12-20 10:15:00
5:35 AM,46.4,23.0,40,30.13,10.0,North,3.5,-,N/A,,Clear,350,2013-12-20 10:35:00
5:55 AM,44.6,24.8,46,30.12,10.0,SSE,5.8,-,N/A,,Clear,160,2013-12-20 10:55:00
6:15 AM,46.4,23.0,40,30.12,10.0,Calm,Calm,-,N/A,,Scattered Clouds,0,2013-12-20 11:15:00
6:35 AM,46.4,23.0,40,30.12,10.0,Calm,Calm,-,N/A,,Mostly Cloudy,0,2013-12-20 11:35:00
6:55 AM,46.4,23.0,40,30.13,10.0,Calm,Calm,-,N/A,,Overcast,0,2013-12-20 11:55:00
7:15 AM,46.4,24.8,43,30.12,10.0,WSW,6.9,-,N/A,,Overcast,250,2013-12-20 12:15:00
7:35 AM,48.2,23.0,37,30.13,10.0,West,4.6,-,N/A,,Overcast,280,2013-12-20 12:35:00
7:55 AM,48.2,23.0,37,30.13,10.0,South,3.5,-,N/A,,Overcast,170,2013-12-20 12:55:00
8:15 AM,48.2,23.0,37,30.12,10.0,Calm,Calm,-,N/A,,Overcast,0,2013-12-20 13:15:00
8:35 AM,50.0,23.0,35,30.12,10.0,ENE,4.6,-,N/A,,Overcast,60,2013-12-20 13:35:00
8:55 AM,51.8,24.8,35,30.13,10.0,East,3.5,-,N/A,,Overcast,80,2013-12-20 13:55:00
9:15 AM,51.8,24.8,35,30.13,10.0,Calm,Calm,-,N/A,,Overcast,0,2013-12-20 14:15:00
9:35 AM,50.0,26.6,40,30.13,10.0,ENE,4.6,-,N/A,,Overcast,60,2013-12-20 14:35:00
9:55 AM,50.0,26.6,40,30.14,10.0,ESE,3.5,-,N/A,,Overcast,120,2013-12-20 14:55:00
10:15 AM,51.8,28.4,41,30.14,10.0,ENE,3.5,-,N/A,,Overcast,70,2013-12-20 15:15:00
10:35 AM,53.6,32.0,44,30.13,10.0,East,5.8,-,N/A,,Overcast,90,2013-12-20 15:35:00
10:55 AM,53.6,32.0,44,30.12,10.0,SSE,8.1,-,N/A,,Mostly Cloudy,150,2013-12-20 15:55:00
11:15 AM,55.4,28.4,36,30.13,10.0,ESE,5.8,-,N/A,,Mostly Cloudy,110,2013-12-20 16:15:00
11:35 AM,55.4,30.2,38,30.12,10.0,South,4.6,-,N/A,,Overcast,180,2013-12-20 16:35:00
11:55 AM,55.4,30.2,38,30.11,10.0,South,6.9,-,N/A,,Overcast,170,2013-12-20 16:55:00
12:15 PM,55.4,32.0,41,30.09,10.0,SSE,4.6,-,N/A,,Overcast,160,2013-12-20 17:15:00
12:35 PM,57.2,35.6,44,30.09,10.0,SW,3.5,-,N/A,,Overcast,230,2013-12-20 17:35:00
12:55 PM,57.2,35.6,44,30.07,10.0,ESE,6.9,-,N/A,,Overcast,120,2013-12-20 17:55:00
1:15 PM,59.0,42.8,55,30.06,10.0,SW,8.1,-,N/A,,Overcast,220,2013-12-20 18:15:00
1:35 PM,59.0,42.8,55,30.06,10.0,SSW,8.1,17.3,N/A,,Overcast,210,2013-12-20 18:35:00
1:55 PM,59.0,44.6,59,30.06,10.0,SW,6.9,-,N/A,,Overcast,220,2013-12-20 18:55:00
2:15 PM,59.0,44.6,59,30.06,10.0,SSW,3.5,-,N/A,,Overcast,200,2013-12-20 19:15:00
2:35 PM,59.0,44.6,59,30.06,10.0,SSW,3.5,-,N/A,,Overcast,200,2013-12-20 19:35:00
2:55 PM,60.8,44.6,55,30.05,10.0,SW,4.6,-,N/A,,Mostly Cloudy,230,2013-12-20 19:55:00
3:15 PM,60.8,44.6,55,30.05,10.0,SW,6.9,-,N/A,,Mostly Cloudy,230,2013-12-20 20:15:00
3:35 PM,59.0,44.6,59,30.06,10.0,West,6.9,-,N/A,,Overcast,280,2013-12-20 20:35:00
3:55 PM,59.0,46.4,63,30.06,10.0,West,3.5,-,N/A,,Overcast,270,2013-12-20 20:55:00
4:15 PM,57.2,48.2,72,30.06,7.0,SW,3.5,-,N/A,,Overcast,220,2013-12-20 21:15:00
4:35 PM,55.4,48.2,77,30.06,10.0,Calm,Calm,-,N/A,,Overcast,0,2013-12-20 21:35:00
4:55 PM,55.4,46.4,72,30.06,10.0,Calm,Calm,-,N/A,,Overcast,0,2013-12-20 21:55:00
5:15 PM,53.6,46.4,77,30.06,10.0,Calm,Calm,-,N/A,,Overcast,0,2013-12-20 22:15:00
5:35 PM,55.4,44.6,67,30.06,10.0,NE,3.5,-,N/A,,Overcast,50,2013-12-20 22:35:00
5:55 PM,55.4,44.6,67,30.06,10.0,NE,4.6,-,N/A,,Overcast,40,2013-12-20 22:55:00
6:15 PM,55.4,44.6,67,30.06,10.0,Calm,Calm,-,N/A,,Overcast,0,2013-12-20 23:15:00
6:35 PM,55.4,44.6,67,30.06,10.0,Calm,Calm,-,N/A,,Overcast,0,2013-12-20 23:35:00
6:55 PM,55.4,46.4,72,30.06,10.0,NE,3.5,-,N/A,,Overcast,40,2013-12-20 23:55:00
7:15 PM,55.4,46.4,72,30.06,10.0,Calm,Calm,-,N/A,,Overcast,0,2013-12-21 00:15:00
7:35 PM,55.4,44.6,67,30.07,10.0,NE,3.5,-,N/A,,Overcast,50,2013-12-21 00:35:00
7:55 PM,55.4,44.6,67,30.07,10.0,Calm,Calm,-,N/A,,Overcast,0,2013-12-21 00:55:00
8:15 PM,53.6,44.6,72,30.08,7.0,Calm,Calm,-,N/A,,Overcast,0,2013-12-21 01:15:00
8:35 PM,51.8,46.4,82,30.08,10.0,East,6.9,-,N/A,,Overcast,90,2013-12-21 01:35:00
8:55 PM,53.6,46.4,77,30.08,10.0,NE,3.5,-,N/A,,Overcast,50,2013-12-21 01:55:00
9:15 PM,51.8,48.2,88,30.07,10.0,NNE,5.8,-,N/A,,Overcast,30,2013-12-21 02:15:00
9:35 PM,53.6,48.2,82,30.06,10.0,East,5.8,-,N/A,,Overcast,90,2013-12-21 02:35:00
9:55 PM,53.6,46.4,77,30.06,10.0,Calm,Calm,-,N/A,,Overcast,0,2013-12-21 02:55:00
10:15 PM,53.6,46.4,77,30.06,10.0,SE,4.6,-,N/A,,Overcast,130,2013-12-21 03:15:00
10:35 PM,51.8,48.2,88,30.05,10.0,Calm,Calm,-,N/A,,Overcast,0,2013-12-21 03:35:00
10:55 PM,53.6,48.2,82,30.05,10.0,Calm,Calm,-,N/A,,Overcast,0,2013-12-21 03:55:00
11:15 PM,55.4,48.2,77,30.05,10.0,South,3.5,-,N/A,,Overcast,170,2013-12-21 04:15:00
11:35 PM,57.2,50.0,77,30.04,10.0,Calm,Calm,-,N/A,,Overcast,0,2013-12-21 04:35:00
11:55 PM,59.0,50.0,72,30.04,10.0,SW,3.5,-,N/A,,Overcast,220,2013-12-21 04:55:00